Weather History for ESPA - October, 2013

Change the Weather History Date:

Saturday, October 12, 2013

  Actual Average Record
Temperature  
Mean Temperature 49 °F -  
Max Temperature 57 °F - - ()
Min Temperature 41 °F - - ()
Degree Days  
Heating Degree Days 16    
Moisture  
Dew Point 43 °F    
Average Humidity 73    
Maximum Humidity 94    
Minimum Humidity 53    
Precipitation  
Precipitation 0.00 in - - ()
Sea Level Pressure  
Sea Level Pressure 30.15 in    
Wind  
Wind Speed 7 mph ()    
Max Wind Speed 21 mph    
Max Gust Speed -    
Visibility 6.2 miles    
Events Rain    
T = Trace of Precipitation, MM = Missing Value Source: Averaged Metar Reports

Daily Weather History Graph

Daily Weather History Graph

Search for Another Location

Airport or City:

Trip Planner

Search our weather history database for the weather conditions in past years. The results will help you decide how hot, cold, wet, or windy it might be!

Date:

Astronomy

Oct. 12, 2013 Rise Set
Actual Time 7:16 AM CEST 5:17 PM CEST
Civil Twilight 6:25 AM CEST 6:08 PM CEST
Nautical Twilight 5:27 AM CEST 7:06 PM CEST
Astronomical Twilight 4:26 AM CEST 8:06 PM CEST
Moon 3:33 PM CEST (10/12) 10:54 PM CEST (10/12)
Length of Visible Light 11h 43m
Length of Day
10h 01m
First Quarter, 55% of the Moon is Illuminated
Oct 12
First Quarter
Oct 19
Full
Oct 27
Last Quarter
Nov 3
New
Nov 10
First Quarter

Hourly Weather History & Observations

Time (CEST) Temp. Windchill Dew Point Humidity Pressure Visibility Wind Dir Wind Speed Gust Speed Precip Events Conditions
12:00 AM 45 °F - 39 °F 71% 30.21 in 31 mi West 2.2 mph - -  
12:20 AM 44.6 °F 43.1 °F 39.2 °F 81% 30.18 in 6.2 mi West 3.5 mph - N/A   Overcast
12:50 AM 46.4 °F 44.3 °F 39.2 °F 76% 30.18 in 6.2 mi WSW 4.6 mph - N/A   Overcast
1:00 AM 46 °F - 40 °F 71% 30.21 in 31 mi WSW 6.7 mph - -   Overcast
1:20 AM 46.4 °F 42.9 °F 39.2 °F 76% 30.18 in 6.2 mi WSW 6.9 mph - N/A   Mostly Cloudy
1:50 AM 46.4 °F 42.4 °F 39.2 °F 76% 30.18 in 6.2 mi SW 8.1 mph - N/A   Scattered Clouds
2:00 AM 45 °F - 40 °F 75% 30.22 in 31 mi WSW 6.7 mph - -  
2:20 AM 46.4 °F 43.5 °F 41.0 °F 81% 30.18 in 6.2 mi SW 5.8 mph - N/A   Overcast
2:50 AM 46.4 °F - 41.0 °F 81% 30.21 in 6.2 mi Variable 2.3 mph - N/A   Mostly Cloudy
3:00 AM 44 °F - 40 °F 79% 30.21 in 31 mi SW 4.5 mph - -  
3:20 AM 46.4 °F 43.5 °F 41.0 °F 81% 30.18 in - SW 5.8 mph - N/A   Clear
3:50 AM 44.6 °F 40.7 °F 41.0 °F 87% 30.18 in 6.2 mi SW 6.9 mph - N/A   Partly Cloudy
4:00 AM 44 °F - 40 °F 83% 30.20 in 31 mi South 2.2 mph - -  
4:20 AM 46.4 °F 42.9 °F 41.0 °F 81% 30.18 in 6.2 mi SW 6.9 mph - N/A   Mostly Cloudy
4:50 AM 46.4 °F 43.5 °F 41.0 °F 81% 30.18 in 6.2 mi SW 5.8 mph - N/A   Mostly Cloudy
5:20 AM 46.4 °F 44.3 °F 42.8 °F 87% 30.18 in - SW 4.6 mph - N/A   Clear
5:50 AM 44.6 °F - 41.0 °F 87% 30.18 in 6.2 mi Calm Calm - N/A   Partly Cloudy
6:00 AM 42 °F - 39 °F 87% 30.20 in 31 mi South 2.2 mph - -  
6:20 AM 42.8 °F - 41.0 °F 93% 30.18 in - SSE 2.3 mph - N/A   Clear
6:50 AM 41.0 °F - 39.2 °F 93% 30.18 in - Variable 2.3 mph - N/A   Clear
7:00 AM 41 °F - 40 °F 94% 30.20 in 31 mi SW 2.2 mph - -  
7:20 AM 42.8 °F - 41.0 °F 93% 30.18 in - Variable 2.3 mph - N/A   Clear
7:50 AM 46.4 °F 42.9 °F 42.8 °F 87% 30.18 in - West 6.9 mph - N/A   Clear
8:00 AM 48 °F - 43 °F 78% 30.19 in 28 mi Calm Calm - -  
8:20 AM 50.0 °F - 44.6 °F 82% 30.18 in - West 5.8 mph - N/A   Clear
8:50 AM 48.2 °F - 44.6 °F 87% 30.18 in - WSW 5.8 mph - N/A   Clear
9:00 AM 49 °F - 44 °F 75% 30.19 in 31 mi SE 2.2 mph - -  
9:20 AM 46.4 °F 45.2 °F 42.8 °F 87% 30.18 in - SW 3.5 mph - N/A   Clear
9:50 AM 48.2 °F - 44.6 °F 87% 30.18 in - Variable 2.3 mph - N/A   Clear
10:00 AM 48 °F - 44 °F 81% 30.21 in 31 mi Calm Calm - -  
10:20 AM 50.0 °F - 44.6 °F 82% 30.18 in - SW 4.6 mph - N/A   Clear
10:50 AM 50.0 °F - 44.6 °F 82% 30.18 in - SW 4.6 mph - N/A   Clear
11:20 AM 50.0 °F - 44.6 °F 82% 30.18 in - WSW 4.6 mph - N/A   Clear
11:50 AM 51.8 °F - 46.4 °F 82% 30.18 in - West 11.5 mph - N/A   Clear
12:00 PM 54 °F - 46 °F 67% 30.19 in 28 mi WNW 8.9 mph - -  
12:20 PM 55.4 °F - 46.4 °F 72% 30.18 in - WNW 12.7 mph - N/A   Clear
12:50 PM 57.2 °F - 46.4 °F 67% 30.18 in - WNW 16.1 mph - N/A   Clear
1:00 PM 56 °F - 46 °F 61% 30.19 in 28 mi WNW 13.4 mph - -  
1:20 PM 57.2 °F - 46.4 °F 67% 30.18 in - WNW 12.7 mph - N/A   Clear
1:50 PM 57.2 °F - 46.4 °F 67% 30.15 in - WNW 15.0 mph - N/A   Clear
2:00 PM 56 °F - 46 °F 61% 30.18 in 25 mi WNW 6.7 mph - -  
2:20 PM 57.2 °F - 48.2 °F 72% 30.15 in - West 4.6 mph - N/A   Clear
2:50 PM 57.2 °F - 46.4 °F 67% 30.15 in - WNW 13.8 mph - N/A   Clear
3:00 PM 57 °F - 47 °F 59% 30.15 in 31 mi WNW 15.7 mph - - Rain Rain
3:20 PM 59.0 °F - 46.4 °F 63% 30.12 in - West 17.3 mph - N/A   Clear
3:50 PM 59.0 °F - 46.4 °F 63% 30.12 in - West 16.1 mph - N/A   Clear
4:00 PM 57 °F - 46 °F 57% 30.15 in 31 mi WNW 15.7 mph - -   Clear
4:20 PM 57.2 °F - 46.4 °F 67% 30.12 in - West 16.1 mph - N/A   Clear
4:50 PM 57.2 °F - 46.4 °F 67% 30.12 in - West 15.0 mph - N/A   Clear
5:20 PM 57.2 °F - 46.4 °F 67% 30.09 in - West 16.1 mph - N/A   Clear
5:50 PM 55.4 °F - 44.6 °F 67% 30.09 in - West 13.8 mph - N/A   Clear
6:00 PM 55 °F - 45 °F 59% 30.12 in 28 mi West 13.4 mph - -   Clear
6:20 PM 55.4 °F - 44.6 °F 67% 30.09 in - West 12.7 mph - N/A   Clear
6:50 PM 53.6 °F - 44.6 °F 72% 30.09 in - West 11.5 mph - N/A   Clear
7:00 PM 53 °F - 44 °F 61% 30.11 in 31 mi West 11.2 mph - -   Clear
7:20 PM 53.6 °F - 42.8 °F 67% 30.09 in - West 12.7 mph - N/A   Clear
7:50 PM 53.6 °F - 42.8 °F 67% 30.09 in 6.2 mi WNW 16.1 mph - N/A   Unknown
8:00 PM 53 °F - 41 °F 54% 30.10 in 28 mi WNW 15.7 mph - -   Clear
8:20 PM 53.6 °F - 41.0 °F 62% 30.06 in 6.2 mi WNW 18.4 mph - N/A   Unknown
8:50 PM 51.8 °F - 41.0 °F 67% 30.06 in 6.2 mi NW 18.4 mph - N/A   Unknown
9:00 PM 52 °F - 40 °F 53% 30.08 in 31 mi NW 17.9 mph - -  
9:20 PM 51.8 °F - 41.0 °F 67% 30.06 in 6.2 mi NW 16.1 mph - N/A   Unknown
9:50 PM 51.8 °F - 39.2 °F 62% 30.06 in 6.2 mi WNW 20.7 mph - N/A   Unknown
10:00 PM 51 °F - 39 °F 54% 30.07 in 31 mi WNW 15.7 mph - -  
10:20 PM 51.8 °F - 39.2 °F 62% 30.04 in 6.2 mi WNW 16.1 mph - N/A   Unknown
10:50 PM 51.8 °F - 39.2 °F 62% 30.04 in 6.2 mi WNW 18.4 mph - N/A   Unknown
11:20 PM 50.0 °F - 39.2 °F 66% 30.04 in 6.2 mi WNW 13.8 mph - N/A   Unknown
11:50 PM 50.0 °F - 39.2 °F 66% 30.04 in 6.2 mi WNW 15.0 mph - N/A   Unknown